User: anonymous   Login
Location: Unspecified
(0.0000°N, 0.0000°E)
Time: 02:59:13
(UTC+00:00)
Language:

COSMOS 2437 - Orbit

View from above orbital plane
View from above orbital plane
View from above satellite
View from above satellite

Ground track
Ground track

The orbit data is extracted from the following two-line orbital elements,

1 32954U 08025B   17232.86566616  .00000013  00000-0  22710-4 0  9997
2 32954  82.5011 200.4190 0020478 152.8770 207.3387 12.42691254419357
Epoch (UTC): 20 August 2017 20:46:33
Eccentricity: 0.0020478
inclination: 82.5011°
perigee height: 1479 km
apogee height: 1511 km
right ascension of ascending node: 200.4190°
argument of perigee: 152.8770°
revolutions per day: 12.42691254
mean anomaly at epoch: 207.3387°
orbit number at epoch: 41935

The dashed part of the orbit path shows where the satellite is in the earth's shadow,  

DLR